Location: Saluda
(35.2377°N, 82.3468°W)
Time: 05:11:39
(UTC+00:00)

Tiros 1 - Pass Details

Date: 07 October 2022
Orbit: 629 x 662 km, 48.4° (Epoch: 09 December)

Event Time Altitude Azimuth Distance (km) Brightness Sun altitude
Exits shadow 09:53:25 49° 265° (W) 834 7.2 -20.3°
Maximum altitude 09:54:17 59° 222° (SW) 750 7.2 -20.1°
Drops below altitude 10° 09:58:53 10° 143° (SE) 2,028 10.1 -19.2°
Sets 10:01:13 0° 139° (SE) 2,929 11.0 -18.7°
